[[{"header":{"parameterUnit":"m.s-1","parameterCategory":1,"la1":30.2991,"la2":30.254,"lo1":-89.0895,"lo2":-89.0444,"dy":0.0017,"dx":0.0017,"nx":28,"ny":28,"refTime":"2024-10-04T09:00:00:Z","depth":0,"parameterNumber":2,"parameterNumberName":"U-component_of_WINDS"},"data":[0,0,0,0,0,0,0,0,0,0,0,0,0,0,0,0,0,0,0,0,0,0,0,0,0,0,0,0,0,0,0,0,0,0,0,0,0,0,0,0,0,0,0,0,0,0,0,0,0,0,0,0,0,0,0,0,0,0,-3.1972,-3.1972,0,-3.203,-3.2031,-3.2031,-3.1941,-3.1938,-3.1935,-3.1932,-3.1991,-3.1996,-3.2,0,0,0,0,0,0,0,0,0,0,0,0,0,-3.1782,-3.1786,-3.1972,-3.1972,-3.1973,-3.203,-3.2031,-3.2031,-3.1942,-3.1938,-3.1934,-3.1931,-3.199,-3.1995,-3.2001,0,0,0,0,0,0,0,0,0,0,0,0,0,-3.1855,-3.1787,-3.1972,-3.1935,-3.1933,-3.203,-3.2031,-3.2032,-3.1943,-3.1938,-3.1933,-3.1929,-3.1988,-3.1995,-3.2001,-3.2137,0,0,-3.2022,-3.2025,0,0,0,0,0,0,0,0,-3.1851,-3.1862,-3.194,-3.1938,-3.1935,-3.1973,-3.1985,-3.2067,-3.1944,-3.1939,-3.1932,-3.1927,-3.1989,-3.1996,-3.2017,-3.2139,-3.2142,-3.2023,-3.2027,-3.203,-3.2031,0,0,0,0,0,0,0,-3.1846,-3.1859,-3.1995,-3.1941,-3.1938,-3.1916,-3.1921,-3.2,-3.199,-3.1939,-3.1932,-3.1941,-3.1987,-3.2011,-3.2018,-3.2143,-3.2022,-3.2028,-3.2033,-3.2035,-3.2378,-3.2383,0,0,0,0,0,0,-3.1845,-3.1855,-3.1993,-3.1996,-3.188,-3.1923,-3.1929,-3.1966,-3.1988,-3.1987,-3.1945,-3.1936,-3.2001,-3.201,-3.2019,-3.2178,-3.203,-3.2036,-3.204,-3.2373,-3.2379,-3.2384,0,0,0,0,0,0,-3.1841,-3.1858,-3.199,-3.1924,-3.1939,-3.1931,-3.1974,-3.197,-3.1993,-3.1993,-3.199,-3.1971,-3.1998,-3.201,-3.2108,-3.2179,-3.2039,-3.2045,-3.2367,-3.2375,-3.2382,-3.2498,0,0,0,0,0,0,-3.1836,-3.1858,-3.1909,-3.1926,-3.1943,-3.2079,-3.1978,-3.1974,-3.2005,-3.1994,-3.2016,-3.2016,-3.1995,-3.2098,-3.2115,-3.2186,-3.205,-3.236,-3.237,-3.2379,-3.2488,-3.2508,-3.2526,0,0,0,0,0,-3.183,-3.194,-3.1912,-3.1929,-3.2007,-3.2083,-3.2093,-3.2067,-3.2011,-3.2062,-3.2062,-3.2015,-3.2169,-3.2109,-3.2127,-3.2201,-3.2356,-3.2368,-3.2379,-3.2479,-3.2504,-3.2526,0,0,0,0,0,0,-3.1932,-3.1941,-3.1911,-3.203,-3.2056,-3.2068,-3.2132,-3.2095,-3.2138,-3.2127,-3.2093,-3.2098,-3.2204,-3.2212,-3.2145,-3.2332,-3.2253,-3.2268,-3.2323,-3.2347,-3.2366,-3.2362,-3.2056,0,0,0,0,0,-3.1968,-3.2029,-3.2034,-3.2138,-3.2153,-3.2141,-3.2172,-3.215,-3.2176,-3.2187,-3.2194,-3.2221,-3.2275,-3.2312,-3.2361,-3.2488,-3.2491,-3.2548,-3.2567,-3.2583,-3.2597,-3.2664,-3.2689,-3.2422,-3.2422,-3.2422,0,0,-3.2044,-3.2056,-3.2097,-3.2159,-3.2177,-3.224,-3.215,-3.2221,-3.2268,-3.2198,-3.229,-3.2297,-3.2324,-3.2437,-3.2487,-3.2448,-3.2671,-3.2598,-3.261,-3.2615,-3.2678,-3.2703,-3.2726,-3.243,-3.2428,-3.2427,0,0,-3.2213,-3.223,-3.2318,-3.2337,-3.2366,-3.2356,-3.2378,-3.2395,-3.2396,-3.2489,-3.2437,-3.2492,-3.2586,-3.2608,-3.2631,-3.2808,-3.2766,-3.2826,-3.2927,-3.2992,-3.3013,-3.3031,-3.3094,-3.3117,-3.2839,-3.284,-3.284,0,-3.2304,-3.2397,-3.2367,-3.2442,-3.247,-3.2409,-3.2498,-3.2518,-3.2562,-3.2583,-3.2537,-3.2654,-3.2668,-3.2785,-3.2828,-3.2849,-3.2872,-3.2823,-3.3012,-3.3031,-3.3047,-3.3107,-3.313,-3.2847,-3.2846,-3.2845,-3.2844,0,-3.2506,-3.2572,-3.264,-3.2683,-3.2719,-3.28,-3.2782,-3.2822,-3.2796,-3.2792,-3.2886,-3.2902,-3.2953,-3.2979,-3.2955,-3.3093,-3.3067,-3.3018,-3.2937,-3.308,-3.3135,-3.3158,-3.2857,-3.2854,-3.2852,-3.285,0,0,-3.2743,-3.2767,-3.2793,-3.2811,-3.2837,-3.2887,-3.2965,-3.3016,-3.305,-3.3082,-3.3146,-3.3227,-3.3181,-3.3208,-3.3186,-3.3244,-3.3382,-3.3187,-3.3187,-3.3222,-3.3533,-3.357,-3.3596,-3.3354,-3.3358,-3.3362,-3.3531,0,-3.2911,-3.3046,-3.3021,-3.3152,-3.3212,-3.3154,-3.3222,-3.3246,-3.3243,-3.3293,-3.3291,-3.3348,-3.3284,-3.33,-3.3354,-3.3354,-3.3444,-3.3341,-3.3413,-3.3416,-3.3408,-3.3625,-3.3664,-3.3823,-3.3552,-3.3556,-3.3558,0,-3.3126,-3.3165,-3.3302,-3.3318,-3.3342,-3.3404,-3.3447,-3.3496,-3.3521,-3.3515,-3.3545,-3.3512,-3.3589,-3.3507,-3.3613,-3.3543,-3.3571,-3.3576,-3.3581,-3.3586,-3.3496,-3.3636,-3.3873,-3.3896,-3.3592,-3.3589,-3.3587,0,-3.3283,-3.3371,-3.3464,-3.3481,-3.3503,-3.3547,-3.3558,-3.3578,-3.361,-3.3648,-3.3667,-3.3714,-3.374,-3.3777,-3.3757,-3.3699,-3.3865,-3.3782,-3.3862,-3.3863,-3.39,-3.3898,-3.4144,-3.3919,-3.3919,-3.3918,-3.3918,0,-3.3474,-3.356,-3.3535,-3.3592,-3.3686,-3.3656,-3.3751,-3.3755,-3.3773,-3.383,-3.3783,-3.3837,-3.3808,-3.386,-3.3845,-3.3934,-3.3946,-3.3943,-3.3938,-3.3947,-3.3947,-3.3964,-3.3953,-3.3924,-3.3923,-3.3922,-3.3921,0,-3.3666,-3.3652,-3.375,-3.3762,-3.3767,-3.3836,-3.3845,-3.3899,-3.3893,-3.3965,-3.398,-3.3971,-3.4029,-3.4013,-3.4077,-3.4066,-3.4179,-3.416,-3.4171,-3.4166,-3.4246,-3.4239,-3.4512,-3.4546,-3.43,-3.4302,-3.4304,0,-3.3788,-3.3853,-3.3872,-3.3906,-3.392,-3.3977,-3.4008,-3.3981,-3.4016,-3.4049,-3.4098,-3.4153,-3.4194,-3.4291,-3.4289,-3.4337,-3.4319,-3.4411,-3.4326,-3.4333,-3.432,-3.4316,-3.4322,-3.4428,-3.4431,-3.4433,-3.4435,0,-3.4007,-3.3996,-3.4044,-3.409,-3.4129,-3.4163,-3.4193,-3.4224,-3.4199,-3.4241,-3.43,-3.4332,-3.4397,-3.4451,-3.4495,-3.4505,-3.4467,-3.4462,-3.4483,-3.4493,-3.4496,-3.4495,-3.4216,-3.4456,-3.4454,-3.4452,-3.4451,-3.445,-3.4167,-3.4221,-3.4243,-3.4297,-3.4317,-3.4346,-3.4396,-3.4396,-3.4445,-3.4495,-3.4476,-3.4544,-3.4566,-3.4621,-3.4637,-3.4689,-3.4654,-3.4685,-3.4692,-3.47,-3.471,-3.4488,-3.4697,-3.4697,-3.4696,-3.4696,-3.4695,0,-3.4382,-3.4393,-3.4443,-3.4486,-3.4529,-3.4488,-3.4519,-3.4558,-3.4618,-3.4642,-3.4684,-3.4752,-3.4804,-3.4807,-3.4855,-3.4897,-3.488,-3.491,-3.4907,-3.491,-3.4739,-3.4716,-3.4923,-3.4923,-3.4923,-3.4923,-3.4923,-3.4923,-3.4499,-3.4589,-3.4581,-3.468,-3.469,-3.4756,-3.4777,-3.4803,-3.4822,-3.4899,-3.4943,-3.4944,-3.4959,-3.5009,-3.5055,-3.5054,-3.5074,-3.5111,-3.5104,-3.4945,-3.4922,-3.49,-3.4878,-3.5116,-3.5116,-3.527,-3.5271,-3.5272]},{"header":{"parameterUnit":"m.s-1","parameterCategory":1,"la1":30.2991,"la2":30.254,"lo1":-89.0895,"lo2":-89.0444,"dy":0.0017,"dx":0.0017,"nx":28,"ny":28,"refTime":"2024-10-04T09:00:00:Z","depth":0,"parameterNumber":3,"parameterNumberName":"V-component_of_WINDS"},"data":[0,0,0,0,0,0,0,0,0,0,0,0,0,0,0,0,0,0,0,0,0,0,0,0,0,0,0,0,0,0,0,0,0,0,0,0,0,0,0,0,0,0,0,0,0,0,0,0,0,0,0,0,0,0,0,0,0,0,-1.7681,-1.7682,0,-1.7743,-1.7743,-1.7744,-1.7753,-1.7752,-1.7752,-1.7751,-1.7814,-1.7816,-1.7818,0,0,0,0,0,0,0,0,0,0,0,0,0,-1.757,-1.7572,-1.7681,-1.7682,-1.7683,-1.7743,-1.7744,-1.7744,-1.7753,-1.7752,-1.7752,-1.7751,-1.7813,-1.7816,-1.7818,0,0,0,0,0,0,0,0,0,0,0,0,0,-1.7624,-1.7573,-1.7681,-1.7694,-1.7696,-1.7743,-1.7744,-1.7745,-1.7753,-1.7752,-1.7752,-1.7751,-1.7812,-1.7815,-1.7819,-1.7856,0,0,-1.7829,-1.783,0,0,0,0,0,0,0,0,-1.7621,-1.7628,-1.7692,-1.7693,-1.7696,-1.7739,-1.7727,-1.7782,-1.7754,-1.7732,-1.7751,-1.775,-1.779,-1.7795,-1.7808,-1.7859,-1.7861,-1.7829,-1.7831,-1.7832,-1.7833,0,0,0,0,0,0,0,-1.7617,-1.7625,-1.7706,-1.7692,-1.7695,-1.7697,-1.7704,-1.7738,-1.7765,-1.7733,-1.7734,-1.7741,-1.7791,-1.7805,-1.781,-1.7862,-1.7829,-1.7832,-1.7834,-1.7835,-1.7946,-1.7947,0,0,0,0,0,0,-1.7611,-1.7622,-1.7704,-1.7707,-1.7655,-1.77,-1.7707,-1.7726,-1.7764,-1.7769,-1.7742,-1.7742,-1.78,-1.7806,-1.7812,-1.7857,-1.7832,-1.7835,-1.7837,-1.7945,-1.7946,-1.7947,0,0,0,0,0,0,-1.7609,-1.7618,-1.7701,-1.7665,-1.7676,-1.7702,-1.7724,-1.7728,-1.7742,-1.7771,-1.7776,-1.7752,-1.7799,-1.7807,-1.7845,-1.786,-1.7837,-1.784,-1.7944,-1.7945,-1.7947,-1.7949,0,0,0,0,0,0,-1.7605,-1.7617,-1.7632,-1.7665,-1.7678,-1.7733,-1.7725,-1.773,-1.7748,-1.7748,-1.7781,-1.7786,-1.7799,-1.784,-1.7848,-1.7864,-1.7842,-1.7942,-1.7944,-1.7946,-1.7948,-1.795,-1.7953,0,0,0,0,0,-1.7601,-1.763,-1.7633,-1.7642,-1.7696,-1.7734,-1.7741,-1.7756,-1.7749,-1.7764,-1.7782,-1.7785,-1.7857,-1.7844,-1.7853,-1.787,-1.7942,-1.7944,-1.7946,-1.7947,-1.795,-1.7953,0,0,0,0,0,0,-1.7598,-1.7635,-1.7638,-1.7678,-1.7703,-1.7735,-1.7754,-1.7759,-1.7786,-1.7785,-1.7802,-1.7809,-1.7846,-1.7862,-1.7846,-1.7908,-1.7899,-1.7903,-1.7896,-1.7899,-1.7902,-1.7897,-1.7845,0,0,0,0,0,-1.7602,-1.7629,-1.766,-1.7693,-1.7705,-1.7728,-1.7744,-1.7754,-1.778,-1.779,-1.7811,-1.7836,-1.7865,-1.7883,-1.7911,-1.795,-1.7957,-1.7966,-1.7969,-1.7971,-1.7974,-1.7995,-1.8,-1.7954,-1.7954,-1.7954,0,0,-1.761,-1.7633,-1.765,-1.7693,-1.7713,-1.7741,-1.7736,-1.7766,-1.7787,-1.7795,-1.7831,-1.7848,-1.7877,-1.7915,-1.7933,-1.793,-1.7988,-1.7974,-1.7975,-1.7977,-1.7998,-1.8002,-1.8006,-1.7956,-1.7956,-1.7955,0,0,-1.7639,-1.766,-1.7689,-1.771,-1.774,-1.7755,-1.7762,-1.7794,-1.7805,-1.7842,-1.7849,-1.7873,-1.7922,-1.7942,-1.7959,-1.7995,-1.7998,-1.8004,-1.8016,-1.8037,-1.8041,-1.8044,-1.8056,-1.8061,-1.8007,-1.8007,-1.8007,0,-1.7645,-1.7688,-1.7704,-1.7733,-1.7751,-1.776,-1.779,-1.7809,-1.7847,-1.7859,-1.7854,-1.7915,-1.7935,-1.7978,-1.7987,-1.8,-1.8008,-1.8,-1.8039,-1.8042,-1.8046,-1.8058,-1.8062,-1.8007,-1.8007,-1.8007,-1.8007,0,-1.7694,-1.7723,-1.7743,-1.7779,-1.78,-1.7829,-1.7849,-1.7868,-1.7876,-1.7891,-1.7928,-1.7953,-1.7985,-1.7996,-1.8004,-1.804,-1.8037,-1.8036,-1.8027,-1.805,-1.8062,-1.8066,-1.8008,-1.8008,-1.8008,-1.8008,0,0,-1.7722,-1.7767,-1.7774,-1.779,-1.7825,-1.7847,-1.7877,-1.7909,-1.7924,-1.795,-1.7975,-1.8016,-1.8014,-1.8033,-1.8043,-1.8062,-1.8088,-1.8058,-1.8059,-1.8062,-1.8129,-1.8129,-1.8134,-1.8091,-1.8092,-1.8093,-1.8126,0,-1.7754,-1.7808,-1.7822,-1.7867,-1.7894,-1.7903,-1.7928,-1.7952,-1.7967,-1.7992,-1.8008,-1.8037,-1.8033,-1.8045,-1.8063,-1.8081,-1.8102,-1.8079,-1.8113,-1.8115,-1.8105,-1.8141,-1.8141,-1.8172,-1.8131,-1.8132,-1.8132,0,-1.78,-1.7826,-1.7874,-1.7904,-1.7916,-1.7939,-1.7969,-1.7993,-1.802,-1.8029,-1.805,-1.8059,-1.8089,-1.8079,-1.8121,-1.8105,-1.8121,-1.8131,-1.8133,-1.8136,-1.8124,-1.8144,-1.8182,-1.8186,-1.814,-1.8139,-1.8139,0,-1.7814,-1.7862,-1.7897,-1.7911,-1.7947,-1.7963,-1.7979,-1.8005,-1.8023,-1.805,-1.8061,-1.8091,-1.8107,-1.8129,-1.8145,-1.8137,-1.8186,-1.8177,-1.8194,-1.8194,-1.8204,-1.8203,-1.8244,-1.8214,-1.8214,-1.8214,-1.8214,0,-1.7849,-1.7877,-1.7904,-1.7925,-1.7957,-1.7974,-1.8005,-1.8021,-1.8044,-1.8068,-1.8078,-1.81,-1.812,-1.8145,-1.8158,-1.819,-1.8198,-1.8206,-1.8209,-1.8205,-1.8203,-1.8214,-1.8212,-1.8215,-1.8215,-1.8215,-1.8215,0,-1.7871,-1.789,-1.7928,-1.7959,-1.7968,-1.799,-1.8017,-1.8037,-1.8053,-1.8083,-1.8091,-1.8115,-1.8145,-1.8163,-1.8201,-1.8209,-1.8245,-1.8247,-1.8236,-1.8237,-1.8253,-1.8251,-1.8301,-1.8309,-1.8275,-1.8275,-1.8276,0,-1.7891,-1.7913,-1.7947,-1.7964,-1.798,-1.8007,-1.8026,-1.8043,-1.8062,-1.8094,-1.811,-1.8141,-1.8166,-1.8213,-1.8234,-1.8262,-1.8265,-1.8281,-1.827,-1.8265,-1.8265,-1.8263,-1.8265,-1.8283,-1.8283,-1.8283,-1.8284,0,-1.7925,-1.7933,-1.7959,-1.7989,-1.8011,-1.8035,-1.8059,-1.8072,-1.8094,-1.8114,-1.8145,-1.8164,-1.8203,-1.8233,-1.8263,-1.8279,-1.8285,-1.8287,-1.8292,-1.8288,-1.828,-1.8284,-1.824,-1.8286,-1.8285,-1.8285,-1.8285,-1.8285,-1.7946,-1.7966,-1.7993,-1.8022,-1.8042,-1.8064,-1.8084,-1.8102,-1.8128,-1.8161,-1.817,-1.8202,-1.8228,-1.8269,-1.8286,-1.8311,-1.8309,-1.8316,-1.8318,-1.832,-1.832,-1.8277,-1.8317,-1.8317,-1.8317,-1.8317,-1.8317,0,-1.798,-1.7997,-1.8024,-1.8057,-1.808,-1.8083,-1.811,-1.8129,-1.8157,-1.8181,-1.8205,-1.824,-1.8269,-1.8292,-1.8322,-1.8337,-1.834,-1.8344,-1.8343,-1.8346,-1.832,-1.8313,-1.8341,-1.8341,-1.8341,-1.8341,-1.8341,-1.8341,-1.8,-1.8033,-1.8045,-1.8088,-1.8105,-1.8137,-1.8152,-1.8172,-1.8191,-1.823,-1.8254,-1.8269,-1.8292,-1.8323,-1.835,-1.8356,-1.8366,-1.8369,-1.8376,-1.8351,-1.8348,-1.8346,-1.8338,-1.8372,-1.8372,-1.8399,-1.84,-1.84]}]]